TimeEST,TemperatureF,Dew PointF,Humidity,Sea Level PressureIn,VisibilityMPH,Wind Direction,Wind SpeedMPH,Gust SpeedMPH,PrecipitationIn,Events,Conditions,WindDirDegrees,DateUTC
12:15 AM,60.8,53.6,77,30.26,10.0,WNW,5.8,-,N/A,,Mostly Cloudy,290,2013-11-29 05:15:00
12:35 AM,60.8,53.6,77,30.25,10.0,WNW,5.8,-,N/A,,Scattered Clouds,290,2013-11-29 05:35:00
12:55 AM,59.0,53.6,82,30.25,10.0,West,5.8,-,N/A,,Clear,270,2013-11-29 05:55:00
1:15 AM,59.0,53.6,82,30.25,10.0,WNW,6.9,-,N/A,,Clear,300,2013-11-29 06:15:00
1:35 AM,59.0,53.6,82,30.25,10.0,WNW,5.8,-,N/A,,Clear,300,2013-11-29 06:35:00
1:55 AM,59.0,53.6,82,30.25,10.0,WNW,6.9,-,N/A,,Scattered Clouds,300,2013-11-29 06:55:00
2:15 AM,59.0,53.6,82,30.25,10.0,WNW,5.8,-,N/A,,Mostly Cloudy,300,2013-11-29 07:15:00
2:35 AM,59.0,53.6,82,30.24,10.0,WNW,4.6,-,N/A,,Mostly Cloudy,300,2013-11-29 07:35:00
2:55 AM,59.0,53.6,82,30.24,10.0,WNW,5.8,-,N/A,,Scattered Clouds,290,2013-11-29 07:55:00
3:15 AM,59.0,53.6,82,30.25,10.0,West,5.8,-,N/A,,Mostly Cloudy,280,2013-11-29 08:15:00
3:35 AM,60.8,55.4,82,30.25,10.0,WNW,6.9,-,N/A,,Overcast,300,2013-11-29 08:35:00
3:55 AM,60.8,53.6,77,30.25,10.0,WNW,6.9,-,N/A,,Overcast,290,2013-11-29 08:55:00
4:15 AM,62.6,55.4,77,30.25,10.0,NNW,3.5,-,N/A,,Overcast,340,2013-11-29 09:15:00
4:35 AM,62.6,59.0,88,30.24,10.0,NE,8.1,-,N/A,,Overcast,40,2013-11-29 09:35:00
4:55 AM,68.0,59.0,73,30.24,10.0,NE,6.9,-,N/A,,Overcast,50,2013-11-29 09:55:00
5:15 AM,69.8,59.0,68,30.24,10.0,NE,8.1,-,N/A,,Overcast,50,2013-11-29 10:15:00
5:35 AM,69.8,59.0,68,30.24,10.0,NE,13.8,-,N/A,,Overcast,40,2013-11-29 10:35:00
5:55 AM,69.8,57.2,64,30.25,10.0,ENE,9.2,-,N/A,,Overcast,60,2013-11-29 10:55:00
6:15 AM,69.8,59.0,68,30.26,10.0,NE,10.4,-,N/A,,Overcast,50,2013-11-29 11:15:00
6:47 AM,71.6,55.4,57,30.27,7.0,ENE,12.7,20.7,N/A,,Mostly Cloudy,70,2013-11-29 11:47:00
7:47 AM,71.6,57.2,60,30.28,7.0,NE,13.8,-,N/A,,Mostly Cloudy,50,2013-11-29 12:47:00
8:47 AM,71.6,57.2,60,30.29,7.0,ENE,17.3,23.0,N/A,,Mostly Cloudy,70,2013-11-29 13:47:00
9:47 AM,73.4,55.4,53,30.31,7.0,ENE,18.4,23.0,N/A,,Mostly Cloudy,70,2013-11-29 14:47:00
10:47 AM,73.4,51.8,47,30.30,7.0,ENE,13.8,19.6,N/A,,Mostly Cloudy,60,2013-11-29 15:47:00
11:47 AM,77.0,46.4,34,30.28,7.0,NE,16.1,23.0,N/A,,Mostly Cloudy,50,2013-11-29 16:47:00
12:47 PM,77.0,50.0,39,30.26,7.0,NE,16.1,23.0,N/A,,Mostly Cloudy,40,2013-11-29 17:47:00
1:47 PM,75.2,53.6,47,30.25,7.0,NE,16.1,-,N/A,,Mostly Cloudy,40,2013-11-29 18:47:00
2:47 PM,77.0,53.6,44,30.24,7.0,NE,13.8,20.7,N/A,,Mostly Cloudy,50,2013-11-29 19:47:00
3:47 PM,73.4,51.8,47,30.24,7.0,NE,16.1,23.0,N/A,,Mostly Cloudy,50,2013-11-29 20:47:00
4:47 PM,73.4,53.6,50,30.24,5.0,NNE,17.3,23.0,N/A,Rain,Light Rain,30,2013-11-29 21:47:00
5:47 PM,73.4,51.8,47,30.25,7.0,ENE,18.4,29.9,N/A,,Overcast,60,2013-11-29 22:47:00
6:47 PM,73.4,48.2,41,30.26,7.0,NE,16.1,25.3,N/A,,Overcast,40,2013-11-29 23:47:00
8:15 PM,71.6,51.8,50,30.26,10.0,ENE,16.1,19.6,N/A,,Clear,60,2013-11-30 01:15:00
8:35 PM,71.6,51.8,50,30.26,10.0,ENE,12.7,18.4,N/A,,Clear,60,2013-11-30 01:35:00
8:55 PM,71.6,53.6,53,30.26,10.0,ENE,10.4,18.4,N/A,,Scattered Clouds,60,2013-11-30 01:55:00
9:15 PM,71.6,53.6,53,30.26,10.0,ENE,11.5,-,N/A,,Scattered Clouds,60,2013-11-30 02:15:00
9:35 PM,71.6,55.4,57,30.26,10.0,ENE,9.2,-,N/A,,Scattered Clouds,60,2013-11-30 02:35:00
9:55 PM,71.6,53.6,53,30.26,10.0,ENE,10.4,-,N/A,,Clear,70,2013-11-30 02:55:00
10:15 PM,71.6,53.6,53,30.27,10.0,NE,8.1,-,N/A,,Scattered Clouds,50,2013-11-30 03:15:00
10:35 PM,71.6,51.8,50,30.26,10.0,ENE,8.1,-,N/A,,Scattered Clouds,60,2013-11-30 03:35:00
10:55 PM,71.6,51.8,50,30.26,10.0,NE,9.2,-,N/A,,Scattered Clouds,50,2013-11-30 03:55:00
11:15 PM,71.6,53.6,53,30.26,10.0,ENE,8.1,-,N/A,,Clear,60,2013-11-30 04:15:00
11:35 PM,69.8,53.6,56,30.25,10.0,NE,5.8,-,N/A,,Clear,50,2013-11-30 04:35:00
11:55 PM,64.4,55.4,73,30.25,10.0,WNW,5.8,-,N/A,,Scattered Clouds,290,2013-11-30 04:55:00